This demonstration page uses our WeatherBlox Daily Observations layout. Learn more.

Left ArrowRight Arrow

Hourly Observations for May 26, 2017

Temp ( °F °C ) Dew Point ( °F °C ) Humidity (%) Winds ( mph kmh ) Pressure ( in mb ) Visibility ( mi km ) Precip ( " mm )
12:56 am 00:56 Mostly Cloudy 66 18.7 56 13.1 70 70 E 6 9 29.65 1004 10 16 0.00 0.00
1:56 am 01:56 Mostly Cloudy 65 18.6 56 13.2 71 71 ESE 6 9 29.63 1004 10 16 0.00 0.00
2:56 am 02:56 Clear 64 17.7 55 12.8 73 73 E 5 7 29.61 1003 10 16 0.00 0.00
3:56 am 03:56 Clear 62 16.8 56 13.5 81 81 ENE 5 7 29.62 1003 10 16 0.00 0.00
4:56 am 04:56 Clear 61 16.3 57 13.8 85 85 E 6 9 29.62 1003 10 16 0.00 0.03
5:43 am 05:43 Mostly Clear with Light Rain 63 17 57 14 83 83 Calm 29.65 1004 10 16 0.00 0.00
5:52 am 05:52 Clear 63 17 57 14 83 83 Calm 29.65 1004 10 16 0.00 0.00
5:56 am 05:56 Clear 63 17 57 14.1 83 83 W 5 7 29.65 1004 10 16 0.00 0.03
6:56 am 06:56 Sunny 61 15.9 58 14.4 91 91 NE 3 6 29.67 1005 10 16 0.00 0.03
7:33 am 07:33 Partly Cloudy with Light Rain 63 17 59 15 88 88 W 6 9 29.70 1006 10 16 0.00 0.00
7:36 am 07:36 Sunny 63 17 59 15 88 88 W 6 9 29.70 1006 10 16 0.00 0.00
7:56 am 07:56 Sunny 64 18 59 14.9 82 82 WNW 6 9 29.70 1006 10 16 0.00 0.03
8:56 am 08:56 Mostly Sunny 68 20 59 15.2 74 74 W 10 17 29.72 1007 10 16 0.00 0.00
9:56 am 09:56 Sunny 72 22.1 59 15.2 65 65 NW 10 17 29.73 1007 10 16 0.00 0.00
10:56 am 10:56 Sunny 73 22.7 58 14.3 59 59 N 10 17 29.75 1008 10 16 0.00 0.00
11:56 am 11:56 Sunny 74 23.2 58 14.5 58 58 NNE 9 15 29.76 1008 10 16 0.00 0.00
12:56 pm 12:56 Sunny 75 23.8 57 13.9 54 54 NW 6 9 29.78 1009 10 16 0.00 0.00
1:56 pm 13:56 Sunny 77 24.8 58 14.3 52 52 N 13 20 29.77 1008 10 16 0.00 0.00
2:56 pm 14:56 Sunny 78 25.6 56 13.1 46 46 NNW 10 17 29.78 1009 10 16 0.00 0.00
3:56 pm 15:56 Sunny 78 25.7 53 11.8 42 42 N 9 15 29.78 1009 10 16 0.00 0.00
4:56 pm 16:56 Sunny 79 26 51 10.6 38 38 N 13 20 29.78 1009 10 16 0.00 0.00
5:56 pm 17:56 Sunny 79 26.3 51 10.4 37 37 N 7 11 29.79 1009 10 16 0.00 0.00
6:56 pm 18:56 Sunny 79 25.9 47 8.4 33 33 N 7 11 29.79 1009 10 16 0.00 0.00
7:56 pm 19:56 Sunny 76 24.5 51 10.4 41 41 N 6 9 29.80 1009 10 16 0.00 0.00
8:56 pm 20:56 Clear 65 18.3 56 13.6 74 74 NNE 5 7 29.83 1010 10 16 0.00 0.00
9:56 pm 21:56 Clear 62 16.4 55 12.5 78 78 N 5 7 29.84 1010 10 16 0.00 0.00
10:56 pm 22:56 Clear 61 16.2 54 12.2 77 77 Calm 29.85 1011 10 16 0.00 0.00
11:56 pm 23:56 Clear 58 14.4 53 11.7 84 84 N 8 13 29.85 1011 10 16 0.00 0.00

Powered by AerisWeather